Tracking 23764 objects as of 18-Oct-2021
HD Live streaming from Space Station
objects crossing your sky now

FALCON 9 R/B

Track FALCON 9 R/B now!


NORAD ID: 40426
Int'l Code: 2015-010C
Perigee: 392.2 km
Apogee: 62,204.5 km
Inclination: 25.7 °
Period: 1,212.7 minutes
Semi major axis: 37669 km
RCS: Unknown
Launch date: March 2, 2015
Source: United States (US)
Launch site: AIR FORCE EASTERN TEST RANGE (AFETR)

Note: This is a ROCKET BODY
aabbcc
Your satellite tracking list
Your tracking list is empty




NASA's NSSDC Master Catalog

Two Line Element Set (TLE):
1 40426U 15010C   21290.45073466 -.00000136  00000-0  46398-3 0  9996
2 40426  25.6782 338.1582 8204589 178.1953 190.2076  1.18746521 28389
Source of the keplerian elements: AFSPC